Location: Cardiff
(53.7833°N, 113.6000°W)
Time: 18:21:33
(UTC+00:00)

NOAA 15 - Pass Details

Date: 08 December 2023
Orbit: 796 x 810 km, 98.6° (Epoch: 21 February)

Event Time Altitude Azimuth Distance (km) Brightness Sun altitude
Rises 01:22:17 0° 141° (SE) 3,320 7.6 -17.6°
Reaches altitude 10° 01:24:41 10° 136° (SE) 2,391 6.8 -17.9°
Maximum altitude 01:29:42 46° 64° (ENE) 1,086 4.8 -18.6°
Drops below altitude 10° 01:34:44 10° 353° (N) 2,398 7.0 -19.4°
Sets 01:37:08 0° 348° (NNW) 3,331 7.8 -19.7°
